Weather History for Salinas, CA

Change the Weather History Date:

Thursday, October 4, 2012

  Actual Average Record
Temperature  
Mean Temperature 64 °F 63 °F  
Max Temperature 69 °F 74 °F 100 °F (1987)
Min Temperature 58 °F 52 °F 37 °F (1931)
Degree Days  
Heating Degree Days 1 3  
Month to date heating degree days 1 12  
Since 1 July heating degree days 213 207  
Cooling Degree Days 0 1  
Month to date cooling degree days 30 4  
Year to date cooling degree days 55 109  
Growing Degree Days 14 (Base 50)    
Moisture  
Dew Point 54 °F    
Average Humidity 73    
Maximum Humidity 87    
Minimum Humidity 59    
Precipitation  
Precipitation 0.00 in 0.02 in 0.32 in (1994)
Month to date precipitation 0.00 0.05  
Year to date precipitation 7.12 8.97  
Since 1 July precipitation T 0.25  
Sea Level Pressure  
Sea Level Pressure 30.12 in    
Wind  
Wind Speed 8 mph (NW)    
Max Wind Speed 15 mph    
Max Gust Speed 20 mph    
Visibility 8 miles    
Events      
T = Trace of Precipitation, MM = Missing Value Source: NWS Daily Summary

Daily Weather History Graph

Daily Weather History Graph

Search for Another Location

Airport:

Trip Planner

Search our weather history database for the weather conditions in past years. The results will help you decide how hot, cold, wet, or windy it might be!

Date:

Astronomy

Oct. 04, 2012 Rise Set
Actual Time 7:04 AM PDT 6:44 PM PDT
Civil Twilight 6:38 AM PDT 7:10 PM PDT
Nautical Twilight 6:08 AM PDT 7:40 PM PDT
Astronomical Twilight 5:38 AM PDT 8:10 PM PDT
Moon 9:31 PM PDT (10/4) 11:19 AM PDT (10/4)
Length of Visible Light 12h 31m
Length of Day
11h 39m
Waning Gibbous, 81% of the Moon is Illuminated
Oct 4
Waning Gibbous
Oct 8
Last Quarter
Oct 15
New
Oct 21
First Quarter
Oct 29
Full

Hourly Weather History & Observations

Time (PDT) Temp. Dew Point Humidity Pressure Visibility Wind Dir Wind Speed Gust Speed Precip Events Conditions
12:53 AM 59.0 °F 55.0 °F 87% 30.06 in 8.0 mi North 5.8 mph - N/A   Overcast
1:53 AM 59.0 °F 55.0 °F 87% 30.06 in 8.0 mi North 6.9 mph - N/A   Overcast
2:53 AM 59.0 °F 55.0 °F 87% 30.07 in 8.0 mi NNW 5.8 mph - N/A   Overcast
3:00 AM 59.0 °F 55.4 °F 88% 30.04 in 8.0 mi NNW 4.6 mph - N/A   Overcast
3:53 AM 59.0 °F 55.0 °F 87% 30.06 in 8.0 mi NNW 5.8 mph - N/A   Overcast
4:53 AM 59.0 °F 55.9 °F 90% 30.07 in 7.0 mi North 4.6 mph - N/A   Overcast
5:14 AM 59.0 °F 55.4 °F 88% 30.05 in 8.0 mi NNW 4.6 mph - N/A   Overcast
5:27 AM 59.0 °F 55.4 °F 88% 30.05 in 8.0 mi NW 5.8 mph - N/A   Overcast
5:53 AM 59.0 °F 55.9 °F 90% 30.09 in 8.0 mi NNW 3.5 mph - N/A   Overcast
6:53 AM 59.0 °F 55.9 °F 90% 30.10 in 7.0 mi NW 6.9 mph - N/A   Overcast
7:53 AM 59.0 °F 55.0 °F 87% 30.12 in 7.0 mi NW 5.8 mph - N/A   Overcast
8:53 AM 59.0 °F 55.0 °F 87% 30.14 in 7.0 mi NW 6.9 mph - N/A   Overcast
9:53 AM 59.0 °F 54.0 °F 83% 30.16 in 8.0 mi NW 5.8 mph - N/A   Overcast
10:53 AM 59.0 °F 54.0 °F 83% 30.17 in 8.0 mi WNW 8.1 mph - N/A   Overcast
11:53 AM 64.9 °F 53.1 °F 65% 30.17 in 9.0 mi WNW 6.9 mph - N/A   Overcast
12:24 PM 62.6 °F 53.6 °F 72% 30.14 in 9.0 mi WNW 6.9 mph - N/A   Scattered Clouds
12:53 PM 66.9 °F 54.0 °F 63% 30.16 in 9.0 mi WNW 9.2 mph - N/A   Partly Cloudy
1:53 PM 66.0 °F 54.0 °F 65% 30.15 in 10.0 mi NW 13.8 mph 18.4 mph N/A   Clear
2:53 PM 68.0 °F 53.1 °F 59% 30.13 in 10.0 mi WNW 12.7 mph - N/A   Clear
3:53 PM 68.0 °F 53.1 °F 59% 30.13 in 10.0 mi WNW 12.7 mph - N/A   Clear
4:53 PM 66.0 °F 54.0 °F 65% 30.13 in 10.0 mi WNW 10.4 mph - N/A   Clear
6:53 PM 63.0 °F 53.1 °F 70% 30.15 in 9.0 mi WNW 10.4 mph - N/A   Clear
7:53 PM 61.0 °F 53.1 °F 75% 30.15 in 9.0 mi WNW 9.2 mph - N/A   Clear
8:53 PM 61.0 °F 53.1 °F 75% 30.16 in 9.0 mi WNW 5.8 mph - N/A   Clear
9:53 PM 60.1 °F 53.1 °F 78% 30.17 in 8.0 mi NW 4.6 mph - N/A   Clear
10:53 PM 59.0 °F 53.1 °F 81% 30.18 in 8.0 mi NW 4.6 mph - N/A   Clear
11:53 PM 59.0 °F 53.1 °F 81% 30.18 in 8.0 mi WNW 3.5 mph - N/A   Clear